Temperature
4 4 4 4 4 4 5 5 5 5 5 5 5 5 5 6 6 6 6 6 6 6 6 6 6 7 7 7 7 7 7 7 7 8 8 8 8 9 9 9 9 9 9
4 4 4 4 4 4 4 4 4 4 4 4 4 4 5 5 5 5 5 5 5 5 5 5 5 6 6 6 6 6 6 6 6 6 7 7 7 8 8 8 8 8 8
3 3 3 3 3 3 3 3 3 3 3 3 3 4 4 4 4 4 4 4 4 4 4 4 4 4 4 5 5 5 5 5 5 5 6 6 6 7 7 7 7 7 8
3 3 3 3 3 3 2 3 3 3 3 2 2 2 2 2 2 2 2 2 2 2 3 2 2 3 3 3 3 3 4 4 4 4 4 5 5 5 5 5 6 6 6
3 3 2 2 2 2 2 2 2 2 2 2 2 1 1 1 1 1 1 1 1 1 1 1 1 1 1 1 1 2 2 2 2 3 3 3 3 4 4 4 4 5 5
3 2 2 2 2 2 2 2 2 1 1 1 1 1 0 0 -0 -0 -0 -0 0 0 0 0 0 0 0 0 0 0 0 0 1 1 1 2 2 2 3 3 3 3 4
2 2 2 2 2 1 1 1 1 1 1 1 0 0 -0 -0 -1 -1 -1 -1 -1 -1 -1 -1 -1 -1 -1 -1 -1 -1 -1 -1 -1 -0 0 0 1 1 1 2 2 2 3
2 2 1 1 1 1 1 1 0 0 0 -0 -0 -1 -1 -1 -2 -2 -2 -2 -2 -2 -2 -2 -3 -2 -2 -3 -2 -2 -2 -1 -1 -1 -1 -0 -0 0 1 1 1 1 2
2 1 1 1 1 0 0 0 -0 -1 -1 -1 -1 -2 -2 -2 -2 -3 -3 -3 -3 -3 -3 -4 -4 -4 -4 -4 -4 -3 -3 -3 -2 -2 -2 -1 -1 -1 -0 0 0 0 0
1 1 1 1 0 -0 -0 -1 -1 -1 -2 -2 -2 -2 -3 -3 -3 -4 -4 -4 -4 -4 -4 -4 -4 -5 -5 -5 -5 -4 -4 -4 -3 -3 -2 -2 -2 -1 -1 -1 -1 -1 -1
1 1 1 0 -0 -1 -1 -1 -2 -2 -2 -2 -3 -3 -4 -4 -4 -5 -5 -6 -6 -5 -5 -5 -5 -5 -5 -5 -5 -5 -5 -5 -4 -4 -3 -3 -2 -2 -2 -2 -1 -1 -1
1 0 0 -0 -1 -1 -1 -2 -2 -3 -3 -3 -4 -4 -4 -4 -5 -5 -6 -6 -6 -7 -6 -6 -6 -6 -6 -6 -6 -5 -5 -5 -5 -5 -4 -4 -3 -3 -3 -2 -2 -2 -1
0 0 -0 -1 -1 -2 -2 -2 -3 -3 -4 -4 -5 -5 -5 -5 -5 -6 -6 -7 -7 -7 -7 -7 -7 -7 -7 -6 -6 -6 -6 -6 -6 -6 -5 -5 -4 -4 -3 -3 -3 -2 -2
0 -0 -1 -1 -2 -2 -3 -3 -4 -4 -5 -5 -5 -5 -5 -5 -6 -6 -7 -7 -7 -7 -7 -7 -7 -7 -7 -7 -7 -7 -6 -6 -7 -6 -6 -6 -5 -5 -4 -4 -4 -3 -3
-0 -1 -1 -2 -2 -3 -3 -4 -4 -5 -5 -6 -6 -6 -7 -6 -7 -7 -8 -8 -8 -8 -8 -8 -8 -8 -8 -7 -7 -7 -7 -7 -7 -7 -7 -6 -6 -6 -5 -5 -4 -4 -4
-1 -1 -2 -2 -3 -3 -4 -4 -4 -5 -5 -6 -6 -7 -7 -7 -7 -7 -8 -8 -8 -8 -8 -8 -8 -8 -8 -8 -8 -8 -8 -8 -8 -7 -7 -7 -7 -6 -6 -5 -5 -5 -5
-1 -2 -2 -3 -3 -4 -4 -5 -5 -4 -5 -5 -6 -7 -7 -7 -8 -8 -8 -8 -8 -8 -9 -9 -9 -9 -9 -9 -9 -9 -8 -8 -8 -8 -8 -8 -7 -7 -6 -6 -6 -5 -5
-2 -2 -3 -3 -4 -4 -5 -5 -6 -6 -6 -6 -6 -7 -7 -8 -8 -8 -8 -9 -8 -8 -9 -9 -9 -9 -9 -9 -9 -9 -9 -9 -9 -8 -8 -8 -8 -7 -7 -7 -6 -6 -6
-2 -3 -3 -4 -4 -5 -5 -6 -6 -7 -7 -7 -7 -7 -8 -8 -8 -8 -9 -9 -9 -9 -9 -10 -10 -10 -10 -10 -10 -9 -9 -9 -9 -9 -8 -8 -8 -8 -7 -7 -7 -6 -6
-3 -3 -4 -4 -5 -5 -6 -6 -7 -7 -7 -8 -8 -8 -9 -9 -9 -9 -9 -9 -10 -10 -10 -10 -10 -10 -10 -10 -10 -10 -10 -9 -9 -9 -9 -8 -8 -8 -8 -7 -7 -7 -6
-3 -4 -4 -5 -5 -6 -6 -7 -7 -8 -8 -8 -8 -9 -10 -10 -10 -10 -10 -10 -10 -10 -10 -10 -10 -10 -10 -10 -10 -10 -10 -9 -9 -9 -9 -8 -8 -8 -8 -7 -7 -7 -7
-4 -4 -5 -5 -6 -6 -7 -7 -8 -8 -8 -9 -9 -9 -9 -10 -10 -10 -10 -10 -10 -10 -10 -10 -10 -10 -10 -10 -10 -10 -10 -9 -9 -9 -9 -8 -8 -8 -8 -8 -7 -7 -7
-4 -5 -5 -6 -6 -7 -7 -8 -8 -8 -9 -9 -9 -9 -9 -10 -10 -10 -10 -10 -10 -10 -10 -10 -10 -10 -10 -10 -10 -10 -10 -9 -9 -9 -9 -9 -8 -8 -8 -8 -7 -7 -7
-4 -5 -5 -6 -6 -7 -7 -8 -8 -9 -9 -9 -9 -9 -10 -10 -10 -10 -10 -10 -10 -10 -10 -10 -10 -10 -10 -10 -9 -9 -9 -9 -9 -9 -9 -9 -8 -8 -8 -8 -7 -7 -7
-5 -5 -6 -6 -7 -7 -8 -8 -8 -9 -9 -9 -9 -10 -10 -10 -10 -10 -10 -10 -10 -10 -10 -10 -10 -10 -10 -9 -9 -9 -9 -9 -9 -9 -9 -8 -8 -8 -8 -8 -7 -7 -7
-5 -6 -6 -7 -7 -7 -8 -8 -9 -9 -9 -9 -9 -10 -10 -10 -10 -10 -10 -10 -10 -10 -10 -9 -9 -9 -9 -9 -9 -9 -9 -9 -8 -8 -8 -8 -8 -8 -8 -8 -7 -7 -7
Wind_Speed
7 7 7 7 7 7 7 7 6 6 7 8 8 8 8 9 8 7 7 7 7 6 6 5 6 5 5 4 4 4 5 6 9 6 4 4 6 7 6 9 12 12 14
6 7 7 7 7 7 7 7 7 7 8 8 7 8 8 8 8 9 9 8 7 7 7 7 7 6 6 5 5 5 5 5 6 8 5 4 6 7 8 8 8 10 11
6 6 7 7 7 7 7 7 7 7 7 7 7 7 8 8 8 8 8 8 8 7 7 7 7 7 7 6 6 6 5 5 4 6 6 4 4 4 5 6 7 7 7
5 5 6 6 6 6 6 6 6 6 6 6 7 7 7 7 7 8 8 8 8 7 7 7 7 7 7 7 7 7 6 6 5 6 6 4 5 5 5 6 6 5 5
4 4 5 5 5 5 6 6 6 6 7 6 6 6 6 6 7 9 8 9 8 8 8 7 7 8 10 8 7 7 7 6 6 6 6 5 5 5 6 5 6 4 4
3 3 3 4 5 5 5 6 6 6 6 6 6 6 7 7 11 13 11 7 8 8 8 8 8 8 10 13 14 12 10 9 8 7 7 7 7 6 5 5 5 4 4
2 2 3 4 4 5 6 6 6 6 6 6 6 6 7 8 13 14 14 8 7 7 8 8 8 9 11 8 11 13 12 14 13 10 9 9 8 7 7 7 7 7 6
1 2 3 3 4 4 5 5 6 5 5 5 6 6 6 9 13 14 15 8 7 8 8 8 8 8 10 11 9 9 9 10 12 9 9 10 9 8 8 9 9 7 4
1 1 2 3 3 4 4 4 4 5 5 5 5 6 6 8 13 14 14 6 6 7 8 8 9 8 14 17 11 10 11 10 13 16 16 15 16 16 12 7 6 7 7
1 1 2 2 3 4 4 4 4 4 5 6 6 6 6 7 11 13 13 6 7 8 8 8 12 14 17 18 11 10 11 11 12 13 13 13 11 13 14 10 8 8 6
1 1 2 2 3 3 3 4 4 5 5 6 6 6 6 7 11 14 14 7 7 8 9 8 9 18 20 20 18 11 15 15 11 11 10 9 8 8 7 8 7 8 7
1 1 2 2 3 3 3 4 4 5 5 6 6 6 5 6 10 12 15 15 14 9 9 9 11 20 22 22 17 17 21 18 9 8 8 8 8 7 7 8 8 9 9
1 2 2 3 3 3 3 4 4 4 4 5 6 6 7 6 8 14 16 17 18 12 10 16 20 22 21 15 17 20 16 9 7 8 8 8 7 8 7 6 7 7 6
2 2 2 2 3 3 3 3 3 4 5 6 6 7 7 7 6 7 8 10 14 13 11 15 19 19 16 15 14 11 8 7 8 8 8 8 7 7 7 6 6 5 5
2 2 2 2 3 3 4 3 4 4 5 7 6 6 8 9 11 17 14 11 10 12 13 9 7 8 7 7 7 7 6 6 7 7 8 8 8 8 7 5 5 5 6
2 2 2 2 3 3 4 5 7 8 11 12 12 12 10 13 18 19 20 20 21 20 14 8 8 8 8 8 9 8 7 7 7 7 8 8 8 8 7 6 5 6 6
2 2 2 2 3 4 4 5 7 9 11 12 13 14 14 17 18 19 20 20 19 17 9 7 8 8 8 8 8 8 8 7 7 7 8 8 7 7 7 6 6 6 5
2 2 2 2 3 4 4 5 5 7 8 7 9 14 15 16 17 18 19 16 10 9 7 8 8 8 8 8 8 8 8 8 7 7 8 7 7 7 7 6 5 5 5
2 2 1 2 3 4 4 5 5 7 7 8 8 9 13 15 17 17 15 8 8 9 8 8 8 8 8 8 8 8 8 8 8 8 8 8 7 7 7 6 6 7 6
2 3 3 3 3 4 4 5 5 6 7 7 8 8 8 9 8 9 9 8 8 8 8 8 9 8 8 8 8 8 8 8 8 8 7 7 7 6 7 7 6 5 4
2 2 4 4 3 4 4 5 5 6 7 7 8 10 14 9 8 9 9 9 8 9 9 9 9 9 8 8 7 8 9 8 8 8 7 7 6 6 6 6 5 4 4
2 2 2 3 3 4 5 5 5 6 7 8 8 9 15 8 7 8 9 9 8 8 8 8 8 8 8 8 8 8 8 9 8 8 7 7 6 6 6 5 5 4 3
2 3 3 3 3 6 6 5 5 6 7 7 8 8 8 8 8 9 9 9 9 9 9 8 9 9 8 8 8 8 9 9 8 8 8 7 6 6 5 5 5 4 3
3 3 3 3 4 4 5 5 5 6 7 7 8 8 8 8 8 9 9 9 9 9 9 9 9 12 14 11 9 9 9 10 10 8 9 7 7 6 5 5 5 4 3
3 3 3 3 4 4 5 5 6 6 7 7 8 8 8 9 9 9 9 9 10 10 11 11 9 10 12 13 12 12 14 17 15 10 7 6 6 6 6 5 4 3 3
3 3 3 3 4 4 4 5 5 6 7 7 8 8 8 9 9 9 9 9 10 10 11 10 11 13 14 13 14 16 17 17 16 14 8 5 5 5 5 4 3 2 2
Wind_Direction
23 27 30 29 30 31 32 27 22 20 20 19 18 17 16 14 9 8 6 2 357 351 347 336 321 314 302 291 277 270 264 259 260 259 236 223 211 216 221 221 224 223 227
25 27 28 27 29 29 27 23 21 21 21 17 15 17 17 13 9 8 6 3 358 352 347 347 340 332 320 308 295 278 270 269 269 272 256 235 228 222 222 222 223 224 224
25 26 25 23 25 23 20 17 18 19 16 14 14 14 12 10 9 4 4 360 354 350 348 344 339 339 334 327 317 306 294 285 275 278 275 255 242 230 233 236 230 226 226
25 25 26 21 18 16 14 14 15 14 13 9 9 7 6 5 7 2 360 352 347 346 346 343 340 339 333 328 319 313 309 301 293 285 277 269 251 237 225 230 236 225 227
25 21 18 12 11 11 10 9 8 9 8 5 5 2 359 360 1 360 353 345 341 339 337 336 333 331 327 325 319 318 311 301 297 289 282 271 256 238 231 224 237 238 237
24 12 9 8 7 5 1 2 3 3 2 2 360 356 356 354 352 352 349 339 336 334 331 328 325 323 324 325 321 317 313 301 294 287 284 277 268 258 246 243 236 236 246
6 359 4 1 0 358 357 359 357 355 354 353 350 350 346 343 347 346 345 340 329 323 319 320 322 326 328 321 321 321 316 309 296 283 281 280 275 264 251 244 239 237 244
345 351 355 352 349 349 352 351 348 346 343 339 336 335 333 335 340 340 341 339 324 320 317 315 315 317 320 321 318 316 309 308 301 291 275 274 278 274 254 248 247 252 263
314 332 340 341 338 340 340 333 330 330 325 321 319 322 322 323 333 335 338 324 317 315 315 317 317 311 316 320 318 312 308 305 306 300 292 286 287 285 276 261 246 242 257
267 299 320 327 326 323 320 316 315 312 309 312 312 311 310 310 326 333 335 322 318 316 313 312 317 317 317 318 314 308 304 302 301 302 297 291 285 282 276 256 237 237 244
245 282 299 306 305 306 310 309 309 310 312 313 312 311 313 319 328 331 332 329 320 316 314 312 311 315 314 312 310 300 297 300 296 293 292 286 278 272 260 253 240 231 239
250 280 291 299 305 314 311 310 311 315 317 316 316 317 316 321 326 325 327 327 325 316 310 307 307 311 311 310 307 301 302 304 298 296 293 291 286 279 265 257 249 239 235
258 278 289 300 302 305 308 313 317 318 316 316 317 316 317 318 322 326 325 324 323 317 306 308 309 310 310 308 305 306 307 302 295 293 291 288 282 280 275 269 267 258 257
249 272 287 301 307 309 308 306 307 309 311 314 315 314 313 314 314 317 317 316 316 312 304 303 306 306 305 303 304 305 301 293 296 289 288 287 286 283 278 273 269 261 269
252 274 294 300 301 302 302 294 296 282 292 304 300 302 308 309 310 316 318 315 314 307 310 302 298 301 301 303 303 300 298 298 298 292 290 292 290 284 280 270 260 262 266
248 273 288 296 298 299 303 306 301 300 304 305 304 303 303 305 311 315 317 316 316 315 314 307 305 306 306 308 310 308 304 301 299 297 295 293 291 287 286 277 259 254 256
228 257 284 297 301 304 306 307 310 312 309 308 308 310 310 312 315 317 318 317 318 320 315 306 306 308 308 309 307 306 303 302 301 299 297 294 290 287 283 278 266 258 255
224 253 272 280 291 294 295 297 300 307 313 311 312 313 316 318 320 320 320 321 318 319 309 307 307 307 308 308 306 305 305 305 303 300 298 294 292 289 284 277 267 260 258
221 231 256 279 287 287 290 294 296 299 302 306 310 315 320 322 321 321 324 319 311 310 310 307 305 305 305 305 303 302 300 300 299 297 295 292 291 288 283 277 271 270 268
221 248 269 281 285 287 292 296 298 301 303 305 308 312 317 318 317 319 319 313 308 306 306 306 305 303 303 301 299 298 299 299 299 296 295 294 292 287 282 278 274 267 257
214 244 270 283 279 285 291 292 295 299 301 303 303 308 315 316 313 311 311 310 309 308 306 305 303 302 299 298 297 296 296 296 294 294 293 293 294 293 288 284 280 272 257
211 232 250 265 278 284 290 290 293 296 299 301 305 309 315 314 308 306 307 308 309 306 303 301 300 297 295 295 296 295 294 293 293 293 292 292 293 292 290 288 284 277 261
208 234 258 271 279 289 295 293 293 295 298 301 304 308 311 309 307 306 307 309 310 309 306 301 298 296 296 294 292 289 287 288 289 291 291 291 291 292 290 286 281 277 258
211 227 248 267 275 278 285 291 294 298 300 302 304 306 306 306 306 306 308 307 307 306 305 304 299 296 296 297 294 290 284 284 286 285 281 280 284 288 285 282 282 271 247
212 224 241 254 266 274 281 288 291 295 299 302 303 305 306 306 305 305 305 305 305 304 304 304 302 300 299 299 298 294 293 294 294 290 278 273 275 278 278 275 276 269 241
214 226 238 248 257 265 273 281 287 292 296 299 300 301 302 302 302 303 304 305 307 307 305 305 302 301 302 301 298 297 299 300 297 294 286 274 271 274 275 273 266 251 220
Height
1465 1463 1461 1460 1459 1458 1458 1456 1455 1454 1453 1451 1450 1449 1448 1447 1446 1445 1444 1442 1442 1441 1440 1440 1439 1439 1439 1439 1439 1439 1440 1440 1438 1438 1440 1441 1442 1443 1445 1447 1450 1452 1454
1466 1464 1462 1461 1460 1458 1457 1456 1455 1453 1452 1451 1449 1448 1446 1445 1444 1442 1440 1439 1438 1437 1436 1435 1435 1434 1433 1433 1432 1431 1432 1432 1432 1430 1431 1432 1432 1434 1436 1437 1439 1441 1444
1467 1465 1463 1462 1460 1459 1457 1456 1454 1453 1451 1450 1448 1446 1445 1443 1442 1440 1438 1437 1435 1434 1432 1431 1430 1429 1428 1427 1426 1425 1425 1425 1425 1424 1422 1423 1423 1425 1426 1428 1430 1431 1433
1467 1465 1464 1462 1460 1459 1457 1455 1453 1452 1450 1448 1446 1445 1443 1442 1440 1438 1436 1434 1432 1431 1429 1428 1426 1425 1423 1422 1421 1420 1419 1418 1417 1416 1415 1415 1416 1417 1418 1419 1419 1421 1423
1467 1465 1464 1462 1460 1458 1456 1454 1452 1450 1449 1447 1445 1443 1442 1440 1437 1435 1433 1431 1429 1427 1426 1424 1423 1421 1419 1418 1416 1414 1413 1412 1411 1410 1409 1408 1409 1409 1410 1411 1411 1412 1413
1467 1465 1463 1462 1460 1458 1456 1454 1451 1449 1447 1445 1443 1442 1439 1437 1435 1433 1431 1428 1426 1424 1422 1420 1418 1416 1415 1413 1411 1410 1409 1407 1405 1404 1403 1403 1402 1402 1403 1403 1404 1404 1404
1465 1464 1462 1460 1458 1456 1454 1452 1450 1448 1446 1444 1442 1439 1437 1435 1432 1430 1428 1425 1423 1420 1418 1415 1413 1411 1410 1408 1406 1404 1403 1402 1401 1400 1398 1397 1396 1396 1396 1396 1396 1395 1396
1463 1462 1460 1458 1456 1454 1452 1450 1448 1446 1443 1441 1439 1436 1434 1432 1429 1427 1425 1422 1419 1417 1414 1412 1409 1406 1405 1403 1400 1398 1396 1395 1394 1393 1392 1390 1390 1390 1389 1388 1388 1388 1389
1461 1459 1458 1456 1454 1452 1450 1447 1445 1443 1441 1438 1436 1433 1431 1428 1426 1423 1421 1417 1415 1412 1410 1407 1405 1402 1400 1398 1395 1392 1389 1387 1386 1385 1384 1383 1382 1382 1382 1382 1381 1381 1379
1458 1457 1455 1453 1451 1449 1447 1445 1442 1440 1438 1435 1433 1430 1428 1425 1422 1420 1417 1414 1411 1408 1405 1402 1400 1397 1395 1393 1390 1387 1383 1381 1379 1377 1375 1374 1374 1373 1373 1373 1373 1373 1372
1455 1453 1452 1450 1448 1446 1444 1442 1439 1437 1434 1432 1429 1427 1424 1422 1419 1416 1414 1411 1407 1404 1400 1397 1395 1392 1390 1387 1385 1382 1379 1376 1373 1371 1368 1366 1365 1364 1364 1364 1364 1364 1364
1452 1450 1449 1447 1445 1443 1441 1438 1436 1433 1431 1428 1425 1423 1420 1418 1415 1412 1410 1407 1404 1400 1396 1393 1390 1387 1384 1381 1379 1376 1373 1371 1367 1364 1361 1359 1357 1356 1355 1355 1355 1355 1355
1448 1447 1445 1443 1441 1439 1437 1435 1432 1430 1427 1424 1421 1419 1416 1413 1411 1408 1405 1402 1399 1396 1392 1388 1385 1382 1379 1375 1372 1370 1367 1364 1361 1358 1355 1352 1351 1349 1348 1347 1346 1346 1345
1444 1443 1441 1439 1438 1436 1434 1431 1429 1426 1424 1421 1418 1415 1411 1408 1406 1403 1399 1396 1393 1389 1386 1382 1379 1376 1373 1370 1367 1364 1361 1358 1356 1353 1349 1346 1344 1342 1340 1339 1337 1336 1336
1440 1439 1437 1436 1434 1432 1430 1428 1425 1423 1421 1418 1415 1412 1408 1404 1402 1399 1396 1392 1388 1385 1381 1377 1373 1370 1367 1364 1361 1358 1355 1352 1350 1347 1344 1340 1338 1335 1333 1332 1330 1329 1329
1436 1435 1433 1432 1430 1428 1426 1424 1422 1420 1417 1414 1411 1409 1404 1402 1398 1395 1391 1388 1384 1380 1377 1372 1369 1366 1363 1359 1356 1353 1350 1347 1344 1341 1338 1335 1332 1329 1327 1325 1324 1323 1323
1432 1431 1430 1428 1426 1424 1422 1420 1417 1415 1413 1410 1407 1404 1401 1397 1394 1390 1386 1383 1379 1376 1372 1368 1365 1362 1358 1355 1352 1348 1345 1342 1340 1337 1334 1331 1328 1325 1322 1320 1319 1318 1317
1428 1427 1426 1424 1423 1421 1419 1416 1413 1410 1407 1404 1403 1400 1396 1393 1389 1386 1382 1378 1374 1371 1368 1364 1361 1357 1354 1351 1347 1344 1341 1337 1335 1332 1329 1326 1323 1320 1318 1316 1314 1313 1313
1424 1423 1422 1420 1419 1417 1415 1412 1410 1407 1404 1400 1397 1394 1392 1388 1385 1381 1378 1374 1370 1366 1363 1360 1357 1353 1350 1346 1343 1339 1336 1333 1330 1327 1324 1322 1319 1316 1314 1312 1310 1309 1309
1420 1419 1418 1416 1415 1413 1411 1408 1406 1403 1400 1397 1393 1390 1387 1383 1380 1376 1373 1370 1366 1363 1359 1356 1352 1349 1345 1341 1338 1335 1332 1329 1326 1323 1320 1317 1315 1312 1310 1308 1307 1306 1305
1416 1415 1413 1412 1410 1409 1406 1404 1402 1399 1396 1393 1390 1387 1384 1380 1376 1373 1369 1366 1363 1359 1355 1351 1347 1344 1340 1337 1333 1330 1327 1324 1322 1319 1316 1313 1311 1309 1307 1305 1303 1303 1302
1411 1410 1409 1408 1406 1404 1402 1400 1398 1395 1392 1389 1386 1383 1380 1377 1373 1369 1366 1362 1358 1355 1351 1347 1343 1339 1336 1333 1329 1326 1323 1320 1317 1315 1312 1310 1308 1306 1304 1302 1301 1300 1299
1407 1406 1405 1403 1402 1400 1398 1396 1394 1391 1389 1385 1382 1379 1376 1372 1369 1365 1362 1358 1354 1350 1347 1343 1339 1335 1332 1328 1325 1322 1319 1316 1313 1311 1309 1306 1304 1303 1301 1300 1298 1297 1297
1402 1401 1400 1399 1398 1396 1394 1392 1390 1387 1385 1382 1379 1375 1372 1369 1365 1362 1358 1354 1350 1346 1342 1339 1334 1331 1327 1324 1320 1317 1315 1312 1310 1307 1305 1304 1302 1300 1299 1297 1296 1295 1295
1397 1397 1396 1395 1394 1392 1390 1388 1386 1384 1381 1378 1375 1372 1368 1365 1362 1358 1354 1350 1346 1342 1339 1335 1331 1327 1323 1319 1316 1313 1311 1308 1306 1304 1302 1301 1299 1298 1297 1295 1295 1294 1294
1393 1392 1391 1390 1389 1388 1386 1384 1382 1380 1377 1374 1371 1368 1365 1361 1358 1354 1351 1347 1343 1339 1335 1331 1327 1323 1320 1316 1312 1310 1307 1305 1303 1301 1300 1298 1297 1296 1295 1294 1293 1293 1293